STARLINK-1826, 46723

Orbit data source: Space-Track

STARLINK-1826, 46723 is a payload satellite owned by SpaceX/Seattle (US) in LEO that was launched on Sun, 18 Oct 2020 UTC via an FALCON 9 launch vehicle from the Air Force Eastern Test Range (AFETR). Payload-class satellites include a variety of spacecraft equipped with specific instruments for various scientific and technological missions. These include communications satellites like Starlink; space stations such as the ISS; scientific satellites like the Hubble; Earth observation satellites from companies like Planet Labs, Umbra, and HawkEye 360; GPS; miniature CubeSats for education and research; and military/defense satellites.

Loading next visibility...
Identifier
46723, 2020-073BF
Orbit
LEO
Country
Flag of USUS
Related business
Manufacturer
SpaceX/Seattle
Mission
Partially operational Commercial Communications
Bus & Motor
STARLINK, Unknown motor
Mass
260 kg wet, ~248 kg dry
Launch date (UTC)
2020-10-18 (6 years ago)
Launch vehicle
FALCON 9
Launch site
Air Force Eastern Test Range (AFETR)
Object type
Payload
Rocket body
Debris
Shape & HBR
Box + 1 Pan, 10.1 m
Radar Cross Section
13.562 m², Large (>1 m²)

Expand to show TLE details & history
Last TLE update: 9 hours ago

TLE from 9 hours ago
0 STARLINK-1826
1 46723U 20073BF  26119.19170453  .00092418  00000-0  74604-3 0  9991
2 46723  53.0439 292.4115 0003557 344.4397  15.6510 15.70123925305906
Epoch: 2026-04-29T04:36Z
TLE epoch observation values (Epoch: 2026-04-29T04:36:03.271Z)
Latitude
0.00001°
Longitude
6.24168°
Altitude
357.138 km
Speed
7.697 km/s
True Right ascension
19h 29m 38s
True Declination
0° 00' 00"
Sunlit
Object was in daylight at epoch
Visualization orbit readout
Latitude
Unknown
Longitude
Unknown
Altitude
Unknown
Speed
Unknown
Apparent Right ascension
Unknown
Apparent Declination
Unknown
Sunlit
N/A
Visualization observer readout
Local Sidereal Time
21:12:09
Azimuth
Unknown
Elevation
Unknown
Doppler factor
Unknown
Orbital elements
Apogee altitude
361.219 km
Perigee altitude
356.426 km
Semi-major axis
6,736.959 km
Eccentricity
0.00036
Inclination
53.0439°
RAAN
292.4115°
Arg. of periapsis
344.4397°
True anomaly
15.662°
Mean anomaly
15.651°
Eccentric anomaly
15.6565°
Mean motion
3.92507 °/min
Orbital period
91.72 mins
BSTAR
0.00074604
Loading maneuver chart data...
Computing Atmospheric mass density...
Loading historical data...
Loading historical data...
Loading historical data...
Loading historical data...
Loading historical data...
Loading historical data...
Loading historical data...

Documentation

Showing up to 5 results
|